Back to catalog

IRIDIUM 33 DEB

LostPO
NORAD 39783·DEBRIS·🇺🇸 United States

Launched Sep 14, 1997 from Baikonur Cosmodrome

Loading…

Next Passes (next 24 hours)

TLE

StaleSource: Space-Track

Epoch: Nov 16, 2025, 15:05 UTC

1 39783U 97051AAQ 25320.62894503  .00226179  00000-0  10398-1 0  9990
2 39783  86.1306 268.8004 0005753 179.9151   1.8316 15.19327111604018

Track IRIDIUM 33 DEB in real time with AllMySat

Download on the App Store